Location: Chin
(49.7667°N, 112.4500°W)
Time: 11:38:30
(UTC+00:00)

N. Korean satellite - Pass Details

Date: 05 December 2021
Orbit: 447 x 491 km, 97.3° (Epoch: 21 January)

Event Time Altitude Azimuth Distance (km) Brightness Sun altitude
Rises 12:10:49 0° 23° (NNE) 2,469 10.4 -28.0°
Reaches altitude 10° 12:13:06 10° 37° (NE) 1,587 9.5 -27.7°
Maximum altitude 12:15:59 26° 95° (E) 931 8.6 -27.2°
Drops below altitude 10° 12:18:51 10° 154° (SSE) 1,572 9.5 -26.7°
Sets 12:21:06 0° 167° (SSE) 2,439 10.3 -26.4°
